DECAYED
Showing default

LACUNASAT-3, 46492 (Decayed)

Orbit data source: Space-Track

LACUNASAT-3, 46492 was a Lithuanian payload satellite in LEO that was launched on Mon, 28 Sep 2020 UTC via a SOYUZ-2-1B launch vehicle from the Plesetsk Missile And Space Complex (PKMTR). Payload-class satellites include a variety of spacecraft equipped with specific instruments for various scientific and technological missions. These include communications satellites like Starlink; space stations such as the ISS; scientific satellites like the Hubble; Earth observation satellites from companies like Planet Labs, Umbra, and HawkEye 360; GPS; miniature CubeSats for education and research; and military/defense satellites.

Not visible in the next 10 days
Identifier
46492, 2020-068G
Orbit
Decayed
Country
Flag of LTLT / LTU
Related business
Manufacturer
NanoAvionics
Mission
Decayed Commercial Communications
Bus & Motor
CUBESAT 3U, Unknown motor
Mass
4 kg wet, 4 kg dry
Launch date (UTC)
2020-09-28 (5 years ago)
Launch vehicle
SOYUZ-2-1B
Launch site
Plesetsk Missile And Space Complex (PKMTR)
Object type
Payload
Rocket body
Debris
Shape & HBR
Box, 0.1 m
Radar Cross Section
0.035 m², Small (<0.1 m²)

Expand to show TLE details & history
Last TLE update: 8 months ago

TLE from 8 months ago
0 LACUNASAT-3
1 46492U 20068G   25031.57425811  .05545069  27564-5  14620-2 0  9993
2 46492  97.7846  25.1611 0006937 169.9253 190.2180 16.28459223240294
Epoch: 2025-01-31T13:46Z
TLE epoch observation values (Epoch: 2025-01-31T13:46:55.900Z)
Latitude
0.00001°
Longitude
47.39318°
Altitude
204.398 km
Speed
7.781 km/s
True Right ascension
01h 40m 38s
True Declination
0° 00' 00"
Sunlit
Object was in daylight at epoch
Visualization orbit readout
Latitude
Unknown
Longitude
Unknown
Altitude
Unknown
Speed
Unknown
Apparent Right ascension
Unknown
Apparent Declination
Unknown
Sunlit
N/A
Visualization observer readout
Local Sidereal Time
22:29:53
Azimuth
Unknown
Elevation
Unknown
Doppler factor
Unknown
Orbital elements
Apogee altitude
198.083 km
Perigee altitude
188.965 km
Semi-major axis
6,571.661 km
Eccentricity
0.00069
Inclination
97.7846°
RAAN
25.1611°
Arg. of periapsis
169.9253°
True anomaly
190.20391°
Mean anomaly
190.218°
Eccentric anomaly
190.21095°
Mean motion
4.07409 °/min
Orbital period
88.36 mins
BSTAR
0.001462
Loading maneuver chart data...
Computing Atmospheric mass density...
Loading historical data...
Loading historical data...
Loading historical data...
Loading historical data...
Loading historical data...
Loading historical data...
Loading historical data...

Documentation

Showing up to 5 results
|